SCP
0 0 0 0 0 0 0 0 0 0 0 0 0 0 -0 0 0 0 0 0 0 0 0 0 0 0 0 0 0 0 0 0 0 0 0 0 0 0 0 0 0 0 0 0 0 0 0 0 0
0 0 0 0 0 0 0 0 0 0 0 0 0 0 0 0 0 0 0 0 0 0 0 0 0 0 0 0 0 0 0 0 0 0 0 0 0 0 0 0 0 0 0 0 0 0 0 0 0
-0 0 0 0 0 0 0 0 0 0 0 0 0 0 0 0 0 0 0 0 0 0 0 0 1 0 0 0 0 0 0 0 0 0 0 0 0 0 0 0 0 0 0 0 0 0 0 0 0
0 0 0 0 0 0 0 0 0 0 0 0 0 0 0 0 0 0 0 0 0 0 0 0 1 1 0 0 1 1 1 1 0 0 0 0 0 0 0 0 0 0 0 0 0 0 0 0 0
0 0 0 0 0 0 0 0 0 0 0 0 0 0 0 0 0 0 0 0 0 0 0 0 1 1 1 1 1 1 1 1 1 0 0 0 0 0 0 0 0 0 0 0 0 0 0 0 0
0 0 0 0 0 0 0 0 0 0 0 0 0 0 0 0 0 0 0 0 0 0 0 0 1 1 1 1 1 1 1 1 1 1 0 0 0 0 0 0 0 0 0 0 0 0 0 0 0
0 0 0 0 0 0 0 0 0 0 0 0 0 0 0 0 0 0 0 0 0 0 0 0 0 0 1 1 1 1 1 1 1 1 0 0 0 0 0 0 0 0 0 0 0 0 0 0 0
-0 0 0 0 0 0 0 0 0 0 0 0 0 0 0 0 1 1 0 0 0 0 0 0 0 0 0 0 1 1 1 1 1 1 0 0 0 0 0 0 0 0 0 0 0 0 0 0 0
-0 0 0 0 0 0 0 0 0 0 0 0 0 0 0 1 1 1 1 1 1 1 1 1 1 1 0 0 1 1 1 1 1 0 0 0 0 0 0 0 0 0 0 0 0 0 0 0 0
0 0 0 0 0 0 0 0 0 0 0 0 0 0 0 1 1 1 1 1 1 1 1 1 1 1 1 1 1 1 1 1 1 0 0 0 0 0 0 0 0 0 0 0 0 0 0 0 0
0 0 0 0 0 0 0 0 0 0 0 0 0 0 0 1 1 1 1 1 1 1 1 1 1 1 1 1 1 1 1 1 1 1 1 1 0 0 0 0 0 0 0 0 0 0 0 0 0
0 0 0 0 0 0 0 0 0 0 0 0 0 0 0 1 1 1 1 1 1 1 1 1 1 1 1 1 1 1 1 1 1 1 1 1 1 1 1 1 1 0 0 0 0 0 0 0 0
0 0 0 0 0 0 0 0 0 0 0 0 0 0 0 1 1 1 1 1 1 1 1 1 1 1 1 1 1 1 1 1 1 1 1 1 1 1 1 1 1 1 0 0 0 0 0 0 0
0 0 0 0 0 0 0 0 0 0 0 0 0 0 0 1 1 1 1 1 1 1 1 1 1 1 1 1 1 1 1 1 1 1 1 1 1 1 1 1 1 1 1 1 0 0 0 0 0
0 0 0 0 0 0 0 0 0 0 0 0 0 0 0 1 1 1 1 1 1 1 1 1 1 1 1 1 1 1 1 1 1 1 1 1 1 1 1 1 1 1 1 1 1 0 0 0 0
0 0 0 0 0 0 0 0 0 0 0 0 0 0 0 1 1 1 1 1 1 1 1 1 1 1 1 1 1 1 1 1 1 1 1 1 1 1 1 1 1 1 1 1 1 0 0 0 0
0 0 0 0 0 0 0 0 0 0 0 0 0 0 0 0 0 1 1 1 1 1 1 1 1 1 1 1 1 1 1 1 1 1 1 1 1 1 1 1 1 1 1 0 0 0 0 0 0
0 0 0 0 0 0 0 0 0 0 0 0 0 0 0 0 0 1 1 1 1 1 1 1 1 1 1 1 1 1 1 1 1 1 1 1 1 1 1 1 1 1 0 0 0 0 0 0 0
0 0 0 0 0 0 0 0 0 0 0 0 0 0 0 0 1 1 1 1 1 1 1 1 1 1 1 1 1 1 1 1 1 1 1 1 1 1 1 1 1 1 0 0 0 0 0 0 0
0 0 0 0 0 0 0 0 0 0 0 0 0 0 0 1 1 1 1 1 1 1 1 1 1 1 1 1 1 1 1 1 1 1 1 1 1 1 1 1 1 1 0 0 0 0 0 0 0
0 0 0 0 0 0 0 0 0 0 0 0 0 0 0 1 1 1 1 1 1 1 1 1 1 1 1 1 1 1 1 1 1 1 1 1 1 1 1 1 1 1 0 0 0 0 0 0 0
0 0 0 0 0 0 0 0 0 0 0 0 0 0 0 1 1 1 1 1 1 1 1 1 1 1 1 1 1 1 1 1 1 1 1 1 1 1 1 0 1 0 0 0 0 0 0 0 0
0 0 0 0 0 0 0 0 0 0 0 0 0 0 0 1 1 1 1 1 1 1 1 1 1 1 1 1 1 1 1 1 1 1 1 1 1 1 0 0 0 0 0 0 0 0 0 0 0
0 0 0 0 0 0 0 0 0 0 0 0 0 0 0 1 1 1 1 1 1 1 1 1 1 1 1 1 1 1 1 1 1 1 1 1 1 0 0 0 0 0 0 0 0 0 0 0 0
0 -0 -0 0 0 0 0 0 0 0 0 0 0 0 0 0 1 1 1 1 1 1 1 1 1 1 1 1 1 1 1 1 1 1 1 0 0 0 0 0 0 0 0 0 0 0 0 0 0
0 -0 -0 -0 0 0 0 0 0 0 0 0 0 0 0 0 0 1 1 1 1 1 1 1 1 1 1 1 1 1 1 1 1 1 0 0 0 0 0 0 0 0 0 0 0 0 0 0 0
0 0 0 0 -0 0 0 0 0 0 0 0 0 0 0 0 0 1 1 1 1 1 1 1 1 1 1 1 1 1 1 1 0 0 0 0 0 0 0 0 0 0 0 0 0 0 0 0 0
0 0 0 0 0 0 0 0 0 0 0 0 0 0 0 0 0 1 1 1 1 1 0 1 1 1 1 0 0 0 0 0 0 0 0 0 0 0 0 0 0 0 0 0 0 0 0 0 0
0 0 0 0 0 0 0 0 0 0 0 0 0 0 0 0 0 0 1 0 0 0 0 0 0 0 0 0 0 0 0 0 0 0 0 0 0 0 0 0 0 0 0 0 0 0 0 0 0
0 0 0 0 0 0 0 0 0 0 0 0 0 0 0 0 0 0 0 0 0 0 0 0 0 0 0 0 0 0 0 0 0 0 0 0 0 0 0 0 0 0 0 0 0 0 0 0 0
Wind_Speed
8 8 7 6 8 6 2 3 2 2 2 2 1 2 2 3 4 5 6 10 12 14 16 16 13 12 12 12 12 13 13 13 13 13 12 11 11 10 9 8 8 7 6 6 5 5 4 4 4
6 6 7 7 8 5 3 3 2 2 3 1 1 1 1 2 4 5 7 11 13 14 14 14 14 12 12 12 12 13 13 13 12 12 12 11 10 9 8 8 7 7 6 5 5 4 4 3 3
7 8 7 6 6 3 2 4 3 3 2 2 1 0 2 3 3 5 8 13 14 13 13 14 14 13 13 12 12 12 12 12 12 11 11 10 9 8 7 7 7 6 6 5 5 4 3 3 3
6 7 7 7 6 2 2 1 1 1 2 2 2 2 3 3 2 6 12 14 15 14 13 15 14 13 13 13 12 12 11 11 11 11 10 9 8 7 7 6 6 6 5 5 5 4 3 3 3
7 7 8 8 6 1 1 1 1 2 2 2 3 2 3 4 6 10 13 14 14 14 13 15 13 13 13 13 12 11 11 10 10 10 9 9 8 7 6 6 6 5 5 4 4 4 3 3 4
7 6 8 7 5 3 2 2 3 4 3 3 4 3 3 6 9 11 13 13 13 13 13 14 14 13 12 12 12 11 10 10 9 9 9 8 8 7 6 6 5 5 5 4 4 3 3 4 4
8 7 8 6 4 3 1 1 3 3 3 3 2 2 5 8 9 10 12 12 12 12 12 13 14 13 12 11 11 10 9 8 8 8 7 7 7 6 6 5 4 4 4 4 3 3 4 4 4
6 6 7 6 4 2 2 2 2 3 1 1 3 3 4 9 10 11 11 11 11 11 10 11 11 11 11 11 11 10 9 8 7 7 7 6 7 7 6 6 5 3 3 4 3 3 4 5 5
7 8 7 4 3 1 2 3 2 2 3 4 3 1 5 13 13 12 11 10 11 10 9 9 9 9 9 9 10 10 9 8 8 8 8 7 6 6 6 4 4 3 3 3 3 3 4 5 6
7 8 3 2 3 3 2 3 2 4 6 5 4 4 8 12 13 13 13 12 12 11 11 9 9 9 8 6 7 6 6 7 5 5 6 5 3 2 2 6 4 3 3 4 4 5 6 7 4
7 7 2 3 4 5 5 4 4 6 6 3 4 7 10 11 11 11 12 11 11 11 9 9 8 7 7 5 5 4 3 4 5 5 4 3 3 3 3 2 4 5 6 5 4 6 4 4 3
7 6 5 5 4 6 6 5 5 6 5 3 1 6 9 11 11 11 11 10 10 10 9 9 8 7 6 5 4 4 4 3 3 4 4 3 2 2 2 2 2 2 2 2 3 3 3 4 5
8 5 5 6 6 7 6 7 6 5 3 1 3 7 8 9 9 9 9 9 9 9 9 8 8 7 6 5 4 4 4 3 4 3 3 3 2 2 2 1 2 3 2 3 3 3 3 4 5
4 5 6 6 5 5 7 6 5 4 2 4 5 6 7 7 8 8 9 9 9 9 8 8 8 7 6 5 4 4 4 4 3 3 3 4 2 2 2 2 2 2 2 2 3 4 4 4 4
5 7 7 5 4 3 6 7 6 3 4 4 5 5 5 6 6 7 7 8 8 8 8 8 8 7 7 6 6 4 4 4 3 3 3 3 3 2 2 2 2 2 2 3 3 3 4 4 4
7 8 6 3 3 3 8 6 3 4 5 4 4 5 5 5 6 6 6 6 7 7 8 8 7 7 7 6 5 4 3 3 3 2 2 3 2 2 2 2 2 2 2 2 3 3 3 3 4
7 6 4 2 3 3 7 5 2 3 5 5 5 5 5 5 6 6 6 7 7 7 7 7 7 7 7 7 5 4 3 3 2 2 2 2 2 2 2 2 2 3 2 2 3 2 3 4 4
3 5 5 4 2 5 7 5 2 4 5 6 5 5 5 5 5 6 7 7 6 6 6 6 7 6 6 5 5 4 4 3 3 2 2 2 2 2 2 2 2 3 2 2 2 3 3 4 4
6 7 7 4 1 6 7 6 5 4 6 6 6 6 6 5 5 5 6 7 7 6 6 6 6 6 5 4 5 4 4 3 3 2 2 3 2 2 2 2 1 2 2 2 3 3 3 3 3
6 8 7 3 1 5 7 8 6 5 6 6 6 6 6 5 5 5 6 6 7 7 7 6 6 6 6 4 3 3 3 2 2 2 2 2 2 2 2 2 2 2 2 2 2 3 3 3 2
7 7 7 7 5 7 8 9 6 5 5 4 5 5 5 6 6 6 6 6 7 7 7 6 6 6 5 5 4 3 3 3 3 3 2 2 2 2 1 2 2 2 3 2 2 2 3 3 2
7 5 7 7 9 6 6 8 4 3 5 5 5 4 5 5 6 6 7 7 7 7 6 6 6 5 5 5 5 5 4 3 2 2 2 2 2 2 2 1 2 2 2 2 2 1 2 3 3
7 6 7 9 10 10 8 9 4 3 4 3 3 3 4 4 5 6 7 7 7 7 6 6 6 5 5 5 5 5 4 3 2 2 2 1 2 2 2 2 2 2 2 1 2 1 2 3 3
5 6 7 9 10 11 7 8 6 1 3 3 1 2 3 3 4 4 5 6 6 6 6 6 6 6 5 5 5 5 4 3 3 3 2 2 1 1 2 2 2 2 2 2 2 2 2 3 3
6 8 7 8 8 6 2 7 4 3 3 3 3 2 1 3 4 4 5 6 6 7 7 7 7 6 6 5 5 4 4 4 4 3 3 2 2 1 1 1 2 2 2 2 2 3 3 3 4
7 9 9 10 9 7 4 6 2 4 3 2 2 2 1 2 3 4 5 5 6 7 7 7 7 6 5 5 4 4 3 3 2 2 2 2 2 1 0 2 3 3 3 3 3 3 3 3 4
7 8 9 11 12 12 7 5 3 0 2 2 1 1 0 0 2 3 4 5 6 7 7 7 7 6 5 5 4 3 3 3 2 2 3 2 1 1 2 2 3 3 3 3 4 2 3 3 4
7 7 7 9 10 10 9 7 3 3 4 3 2 1 0 1 2 3 4 5 5 6 6 7 7 6 5 4 3 3 3 3 3 2 2 1 2 2 2 3 3 4 3 3 4 3 3 4 4
6 6 7 9 8 10 9 4 5 5 5 5 4 2 1 1 2 4 4 5 5 5 6 6 6 6 5 4 4 3 3 3 3 2 2 2 2 2 3 3 3 4 4 3 3 4 4 5 4
8 7 7 8 9 9 10 5 4 5 5 5 4 2 1 0 2 4 5 5 6 6 5 5 5 5 5 4 4 4 3 3 3 3 2 2 2 3 3 3 3 4 4 4 4 5 5 5 5
Wind_Direction
207 208 222 231 235 225 220 103 96 108 83 51 18 312 334 352 351 46 96 144 145 145 143 151 150 151 151 148 146 146 146 146 146 147 148 149 149 150 151 151 150 149 147 144 142 142 143 141 142
205 205 224 236 248 218 151 100 118 57 66 111 160 231 286 55 45 90 126 142 147 144 146 151 148 151 150 149 147 146 146 147 148 149 149 149 151 152 154 156 154 153 151 149 152 154 153 152 154
205 226 244 238 241 259 93 92 84 82 123 196 176 43 12 48 94 114 128 145 146 144 147 143 152 153 153 152 149 147 147 148 148 149 148 148 150 151 155 159 159 159 160 164 165 162 166 179 187
208 215 231 240 229 250 348 68 87 164 163 201 203 130 103 58 76 118 137 148 147 150 151 143 155 155 155 153 148 145 145 146 147 148 148 149 150 151 155 158 158 159 163 166 168 171 181 198 206
232 236 225 223 226 213 282 294 232 238 186 193 214 166 117 97 109 129 145 152 152 151 149 144 153 154 154 152 148 148 148 148 149 150 151 152 152 154 158 162 164 162 165 167 170 174 186 211 216
221 232 233 220 203 194 201 217 221 235 213 184 202 194 112 121 139 145 150 156 153 151 150 142 151 154 154 154 153 152 150 151 153 153 152 152 153 157 163 169 173 172 178 183 186 191 205 222 233
246 238 244 235 210 194 174 224 236 233 214 191 209 188 134 142 143 148 150 154 152 153 153 152 157 158 158 159 157 154 151 152 154 154 155 158 161 167 173 176 180 184 189 196 206 212 224 232 239
265 253 233 228 228 193 133 206 246 253 239 132 220 217 154 143 147 147 149 152 152 156 160 159 160 160 165 162 158 157 156 156 158 159 160 165 172 177 180 186 173 186 201 211 222 233 240 241 240
246 246 230 222 242 211 159 232 209 239 210 201 224 282 97 137 151 153 154 158 159 161 165 165 164 165 171 164 152 162 163 164 173 172 168 188 194 183 180 171 147 181 203 223 238 251 256 255 232
233 245 244 335 299 295 269 265 247 222 214 203 184 143 132 152 163 167 168 169 169 169 171 170 169 170 173 166 157 174 174 165 184 175 177 193 189 201 197 132 155 199 222 225 228 248 248 251 245
232 257 297 282 288 291 275 266 250 253 248 233 205 169 160 168 174 178 177 175 173 170 172 172 172 172 176 172 170 177 179 170 180 179 184 198 204 195 210 188 178 204 220 232 210 229 246 257 272
237 252 274 281 291 270 270 266 257 263 299 337 188 165 171 179 184 186 185 178 174 173 174 175 172 174 181 182 175 180 180 178 180 175 199 199 207 216 217 230 233 232 231 245 261 257 265 272 270
234 251 268 269 265 267 262 258 266 271 283 211 155 166 181 187 188 186 185 179 178 177 175 176 174 175 178 185 193 180 185 183 176 183 186 212 212 218 230 244 257 264 266 250 265 280 280 276 269
266 268 268 266 262 249 247 248 245 247 198 176 171 174 182 186 187 183 181 183 183 180 178 176 179 178 180 185 190 187 188 186 193 185 189 211 225 225 242 240 254 269 276 298 288 287 278 275 279
257 255 243 232 237 234 251 234 225 199 180 184 175 170 176 181 185 189 186 185 184 182 179 181 182 181 185 189 194 192 191 190 197 187 193 207 222 224 245 260 258 278 281 272 272 282 278 270 270
233 240 233 164 215 216 248 245 134 152 188 194 180 168 176 181 188 186 181 178 182 181 179 185 185 181 186 192 198 200 197 194 196 196 193 205 220 223 245 261 270 269 264 267 271 274 280 286 287
216 245 257 174 188 224 247 268 128 177 205 206 193 185 182 182 189 183 182 180 179 177 175 177 185 187 190 189 188 194 191 202 199 197 203 203 215 218 231 246 268 265 266 269 280 294 293 292 295
279 277 270 266 183 247 253 265 243 203 219 217 206 197 191 194 193 181 182 179 177 176 176 174 179 182 185 185 182 192 194 199 202 196 198 216 216 220 236 231 244 265 267 275 290 287 284 287 292
293 281 279 289 314 264 264 270 268 225 222 218 212 208 203 197 180 171 175 178 176 173 171 176 182 181 182 184 196 198 201 201 199 202 194 208 221 222 229 247 235 255 267 287 290 284 277 279 293
273 273 279 278 224 271 276 272 261 230 224 228 225 217 213 202 181 174 177 182 181 175 176 177 184 186 188 188 199 207 205 200 188 191 178 207 219 226 223 237 238 244 260 257 275 278 288 294 298
276 283 296 301 286 243 262 258 240 193 205 219 231 228 219 211 202 193 190 188 182 180 182 180 183 184 187 188 191 183 182 194 189 184 182 189 201 220 248 239 260 260 262 259 266 268 276 286 287
283 311 294 282 270 263 262 280 251 202 212 216 223 222 219 210 202 199 197 193 190 186 179 179 181 180 181 188 197 192 202 206 184 183 177 184 196 209 224 237 248 257 260 265 259 273 272 273 283
308 311 284 276 272 272 250 268 268 194 245 238 218 226 223 210 202 198 197 194 190 184 177 175 177 180 180 187 189 196 204 190 168 161 155 195 184 191 193 208 224 240 247 256 277 282 281 277 284
290 269 254 250 254 258 261 271 280 303 308 316 306 245 220 204 192 193 186 179 180 176 170 169 174 176 177 183 189 199 196 188 180 181 191 208 180 176 182 206 220 237 243 234 246 257 254 275 286
265 277 267 255 248 263 280 269 290 354 345 324 321 311 239 203 188 187 179 177 175 173 173 172 171 173 177 181 184 192 197 197 199 200 201 218 215 196 185 234 243 241 240 247 254 250 261 263 270
281 281 285 291 290 292 264 260 318 20 1 343 338 322 273 211 191 191 187 182 175 171 172 171 170 172 173 173 174 182 193 207 196 201 228 231 246 240 203 230 253 253 247 250 254 256 257 261 268
282 276 296 287 281 280 270 269 255 190 316 323 331 318 300 229 190 183 173 175 173 170 172 172 169 166 164 167 170 177 189 201 196 196 219 236 246 248 244 251 258 258 251 250 252 259 269 270 268
286 301 286 276 282 281 272 271 298 337 337 326 319 322 304 185 173 167 167 167 164 166 167 164 160 157 158 163 174 177 179 188 198 212 211 228 244 255 253 258 257 258 256 250 257 263 269 270 271
286 273 279 279 280 284 286 305 15 354 341 327 329 332 303 220 176 164 161 159 155 159 162 162 160 158 162 169 171 175 183 185 195 208 217 227 241 248 249 250 254 257 258 259 265 276 273 271 273
283 287 283 279 276 275 283 293 38 1 345 332 328 334 348 233 173 161 159 160 156 156 161 162 163 166 169 172 174 183 191 196 208 215 228 235 245 249 246 250 255 259 262 262 267 273 277 277 275